owner,sensor,date,latitude,longitude,vertical_datum,mass_concentration_of_oxygen_in_sea_water,qcFlag 
TCOON,ioos:station:TCOON:170:1,2017-11-01T00:30:00Z,27.2970,-97.4049,1.0,6.15,1111122 
TCOON,ioos:station:TCOON:170:1,2017-11-01T04:30:00Z,27.2970,-97.4049,1.0,5.02,1111122 
TCOON,ioos:station:TCOON:170:1,2017-11-01T05:30:00Z,27.2970,-97.4049,1.0,4.6,1111122 
TCOON,ioos:station:TCOON:170:1,2017-11-01T06:30:00Z,27.2970,-97.4049,1.0,4.75,1111122 
TCOON,ioos:station:TCOON:170:1,2017-11-01T07:30:00Z,27.2970,-97.4049,1.0,4.55,1111122 
TCOON,ioos:station:TCOON:170:1,2017-11-01T08:30:00Z,27.2970,-97.4049,1.0,4.27,1111122 
TCOON,ioos:station:TCOON:170:1,2017-11-01T09:30:00Z,27.2970,-97.4049,1.0,4.23,1111122 
TCOON,ioos:station:TCOON:170:1,2017-11-01T10:30:00Z,27.2970,-97.4049,1.0,4.3,1111122 
TCOON,ioos:station:TCOON:170:1,2017-11-01T14:30:00Z,27.2970,-97.4049,1.0,3.64,1111122 
TCOON,ioos:station:TCOON:170:1,2017-11-01T15:30:00Z,27.2970,-97.4049,1.0,3.83,1111122 
TCOON,ioos:station:TCOON:170:1,2017-11-01T16:30:00Z,27.2970,-97.4049,1.0,5.32,1111122 
TCOON,ioos:station:TCOON:170:1,2017-11-01T18:30:00Z,27.2970,-97.4049,1.0,6.83,1111122 
TCOON,ioos:station:TCOON:170:1,2017-11-01T19:30:00Z,27.2970,-97.4049,1.0,7.41,1111122 
TCOON,ioos:station:TCOON:170:1,2017-11-01T20:30:00Z,27.2970,-97.4049,1.0,8.02,1111122 
TCOON,ioos:station:TCOON:170:1,2017-11-01T21:30:00Z,27.2970,-97.4049,1.0,7.56,1111122 
TCOON,ioos:station:TCOON:170:1,2017-11-01T23:30:00Z,27.2970,-97.4049,1.0,5.85,1111122 
TCOON,ioos:station:TCOON:170:1,2017-11-02T00:30:00Z,27.2970,-97.4049,1.0,5.97,1111122 
TCOON,ioos:station:TCOON:170:1,2017-11-02T01:30:00Z,27.2970,-97.4049,1.0,5.8,1111122 
TCOON,ioos:station:TCOON:170:1,2017-11-02T02:30:00Z,27.2970,-97.4049,1.0,5.64,1111122 
TCOON,ioos:station:TCOON:170:1,2017-11-02T04:30:00Z,27.2970,-97.4049,1.0,5.24,1111122 
TCOON,ioos:station:TCOON:170:1,2017-11-02T05:30:00Z,27.2970,-97.4049,1.0,5.05,1111122 
TCOON,ioos:station:TCOON:170:1,2017-11-02T07:30:00Z,27.2970,-97.4049,1.0,4.88,1111122 
TCOON,ioos:station:TCOON:170:1,2017-11-02T08:30:00Z,27.2970,-97.4049,1.0,4.59,1111122 
TCOON,ioos:station:TCOON:170:1,2017-11-02T10:30:00Z,27.2970,-97.4049,1.0,4.17,1111122 
TCOON,ioos:station:TCOON:170:1,2017-11-02T11:30:00Z,27.2970,-97.4049,1.0,4.1,1111122 
TCOON,ioos:station:TCOON:170:1,2017-11-02T12:30:00Z,27.2970,-97.4049,1.0,4.11,1111122 
TCOON,ioos:station:TCOON:170:1,2017-11-02T14:30:00Z,27.2970,-97.4049,1.0,4.85,1111122 
TCOON,ioos:station:TCOON:170:1,2017-11-02T15:30:00Z,27.2970,-97.4049,1.0,5.65,1111122 
TCOON,ioos:station:TCOON:170:1,2017-11-02T16:30:00Z,27.2970,-97.4049,1.0,6.54,1111122 
TCOON,ioos:station:TCOON:170:1,2017-11-02T17:30:00Z,27.2970,-97.4049,1.0,6.68,1111122 
TCOON,ioos:station:TCOON:170:1,2017-11-02T18:30:00Z,27.2970,-97.4049,1.0,6.53,1111122 
TCOON,ioos:station:TCOON:170:1,2017-11-02T19:30:00Z,27.2970,-97.4049,1.0,7.33,1111122 
TCOON,ioos:station:TCOON:170:1,2017-11-02T20:30:00Z,27.2970,-97.4049,1.0,7.58,1111122 
TCOON,ioos:station:TCOON:170:1,2017-11-02T21:30:00Z,27.2970,-97.4049,1.0,7.76,1111122 
TCOON,ioos:station:TCOON:170:1,2017-11-02T22:30:00Z,27.2970,-97.4049,1.0,7.41,1111122 
TCOON,ioos:station:TCOON:170:1,2017-11-02T23:30:00Z,27.2970,-97.4049,1.0,6.65,1111122 
TCOON,ioos:station:TCOON:170:1,2017-11-03T00:30:00Z,27.2970,-97.4049,1.0,5.87,1111122 
TCOON,ioos:station:TCOON:170:1,2017-11-03T01:30:00Z,27.2970,-97.4049,1.0,5.56,1111122 
TCOON,ioos:station:TCOON:170:1,2017-11-03T02:30:00Z,27.2970,-97.4049,1.0,5.27,1111122 
TCOON,ioos:station:TCOON:170:1,2017-11-03T03:30:00Z,27.2970,-97.4049,1.0,5.04,1111122 
TCOON,ioos:station:TCOON:170:1,2017-11-03T04:30:00Z,27.2970,-97.4049,1.0,4.71,1111122 
TCOON,ioos:station:TCOON:170:1,2017-11-03T05:30:00Z,27.2970,-97.4049,1.0,4.59,1111122 
TCOON,ioos:station:TCOON:170:1,2017-11-03T06:30:00Z,27.2970,-97.4049,1.0,4.29,1111122 
TCOON,ioos:station:TCOON:170:1,2017-11-03T07:30:00Z,27.2970,-97.4049,1.0,4.25,1111122 
TCOON,ioos:station:TCOON:170:1,2017-11-03T08:30:00Z,27.2970,-97.4049,1.0,4.15,1111122 
TCOON,ioos:station:TCOON:170:1,2017-11-03T12:30:00Z,27.2970,-97.4049,1.0,3.73,1111122 
TCOON,ioos:station:TCOON:170:1,2017-11-03T13:30:00Z,27.2970,-97.4049,1.0,3.63,1111122 
TCOON,ioos:station:TCOON:170:1,2017-11-03T14:30:00Z,27.2970,-97.4049,1.0,4.09,1111122 
TCOON,ioos:station:TCOON:170:1,2017-11-03T15:30:00Z,27.2970,-97.4049,1.0,4.55,1111122 
TCOON,ioos:station:TCOON:170:1,2017-11-03T16:30:00Z,27.2970,-97.4049,1.0,4.53,1111122 
TCOON,ioos:station:TCOON:170:1,2017-11-03T17:30:00Z,27.2970,-97.4049,1.0,5.83,1111122 
TCOON,ioos:station:TCOON:170:1,2017-11-03T18:30:00Z,27.2970,-97.4049,1.0,6.3,1111122 
TCOON,ioos:station:TCOON:170:1,2017-11-03T19:30:00Z,27.2970,-97.4049,1.0,6.61,1111122 
TCOON,ioos:station:TCOON:170:1,2017-11-03T20:30:00Z,27.2970,-97.4049,1.0,6.91,1111122 
TCOON,ioos:station:TCOON:170:1,2017-11-03T21:30:00Z,27.2970,-97.4049,1.0,7.07,1111122 
TCOON,ioos:station:TCOON:170:1,2017-11-03T22:30:00Z,27.2970,-97.4049,1.0,6.99,1111122 
TCOON,ioos:station:TCOON:170:1,2017-11-03T23:30:00Z,27.2970,-97.4049,1.0,6.34,1111122 
TCOON,ioos:station:TCOON:170:1,2017-11-04T00:30:00Z,27.2970,-97.4049,1.0,5.62,1111122 
TCOON,ioos:station:TCOON:170:1,2017-11-04T01:30:00Z,27.2970,-97.4049,1.0,5.35,1111122 
TCOON,ioos:station:TCOON:170:1,2017-11-04T02:30:00Z,27.2970,-97.4049,1.0,5.07,1111122 
TCOON,ioos:station:TCOON:170:1,2017-11-04T03:30:00Z,27.2970,-97.4049,1.0,4.69,1111122 
TCOON,ioos:station:TCOON:170:1,2017-11-04T04:30:00Z,27.2970,-97.4049,1.0,4.34,1111122 
TCOON,ioos:station:TCOON:170:1,2017-11-04T05:30:00Z,27.2970,-97.4049,1.0,3.85,1111122 
TCOON,ioos:station:TCOON:170:1,2017-11-04T06:30:00Z,27.2970,-97.4049,1.0,4.1,1111122 
TCOON,ioos:station:TCOON:170:1,2017-11-04T07:30:00Z,27.2970,-97.4049,1.0,3.88,1111122 
TCOON,ioos:station:TCOON:170:1,2017-11-04T08:30:00Z,27.2970,-97.4049,1.0,4.03,1111122 
TCOON,ioos:station:TCOON:170:1,2017-11-04T09:30:00Z,27.2970,-97.4049,1.0,4.01,1111122 
TCOON,ioos:station:TCOON:170:1,2017-11-04T10:30:00Z,27.2970,-97.4049,1.0,3.87,1111122 
TCOON,ioos:station:TCOON:170:1,2017-11-04T11:30:00Z,27.2970,-97.4049,1.0,3.55,1111122 
TCOON,ioos:station:TCOON:170:1,2017-11-04T12:30:00Z,27.2970,-97.4049,1.0,3.67,1111122 
TCOON,ioos:station:TCOON:170:1,2017-11-04T13:30:00Z,27.2970,-97.4049,1.0,3.74,1111122 
TCOON,ioos:station:TCOON:170:1,2017-11-04T18:30:00Z,27.2970,-97.4049,1.0,5.58,1111122 
TCOON,ioos:station:TCOON:170:1,2017-11-04T20:30:00Z,27.2970,-97.4049,1.0,5.71,1111122 
TCOON,ioos:station:TCOON:170:1,2017-11-04T22:30:00Z,27.2970,-97.4049,1.0,6.32,1111122 
TCOON,ioos:station:TCOON:170:1,2017-11-05T00:30:00Z,27.2970,-97.4049,1.0,5.23,1111122 
TCOON,ioos:station:TCOON:170:1,2017-11-05T01:30:00Z,27.2970,-97.4049,1.0,4.64,1111122 
TCOON,ioos:station:TCOON:170:1,2017-11-05T02:30:00Z,27.2970,-97.4049,1.0,4.44,1111122 
TCOON,ioos:station:TCOON:170:1,2017-11-05T03:30:00Z,27.2970,-97.4049,1.0,4.39,1111122 
TCOON,ioos:station:TCOON:170:1,2017-11-05T04:30:00Z,27.2970,-97.4049,1.0,4.05,1111122 
TCOON,ioos:station:TCOON:170:1,2017-11-05T05:30:00Z,27.2970,-97.4049,1.0,4.18,1111122 
TCOON,ioos:station:TCOON:170:1,2017-11-05T06:30:00Z,27.2970,-97.4049,1.0,3.69,1111122 
TCOON,ioos:station:TCOON:170:1,2017-11-05T07:30:00Z,27.2970,-97.4049,1.0,3.32,1111122 
TCOON,ioos:station:TCOON:170:1,2017-11-05T08:30:00Z,27.2970,-97.4049,1.0,3.72,1111122 
TCOON,ioos:station:TCOON:170:1,2017-11-05T10:30:00Z,27.2970,-97.4049,1.0,3.39,1111122 
TCOON,ioos:station:TCOON:170:1,2017-11-05T11:30:00Z,27.2970,-97.4049,1.0,3.67,1111122 
TCOON,ioos:station:TCOON:170:1,2017-11-05T12:30:00Z,27.2970,-97.4049,1.0,3.73,1111122 
TCOON,ioos:station:TCOON:170:1,2017-11-05T13:30:00Z,27.2970,-97.4049,1.0,3.81,1111122 
TCOON,ioos:station:TCOON:170:1,2017-11-05T14:30:00Z,27.2970,-97.4049,1.0,4.99,1111122 
TCOON,ioos:station:TCOON:170:1,2017-11-05T15:30:00Z,27.2970,-97.4049,1.0,5.74,1111122 
TCOON,ioos:station:TCOON:170:1,2017-11-05T21:30:00Z,27.2970,-97.4049,1.0,7.93,1111122 
TCOON,ioos:station:TCOON:170:1,2017-11-05T23:30:00Z,27.2970,-97.4049,1.0,6.76,1111122 
TCOON,ioos:station:TCOON:170:1,2017-11-06T09:30:00Z,27.2970,-97.4049,1.0,4.11,1111122 
TCOON,ioos:station:TCOON:170:1,2017-11-06T12:30:00Z,27.2970,-97.4049,1.0,3.89,1111122 
TCOON,ioos:station:TCOON:170:1,2017-11-06T13:30:00Z,27.2970,-97.4049,1.0,3.93,1111122 
TCOON,ioos:station:TCOON:170:1,2017-11-06T14:30:00Z,27.2970,-97.4049,1.0,5.14,1111122 
TCOON,ioos:station:TCOON:170:1,2017-11-06T15:30:00Z,27.2970,-97.4049,1.0,5.8,1111122 
TCOON,ioos:station:TCOON:170:1,2017-11-06T18:30:00Z,27.2970,-97.4049,1.0,7.18,1111122 
TCOON,ioos:station:TCOON:170:1,2017-11-06T19:30:00Z,27.2970,-97.4049,1.0,7.23,1111122 
TCOON,ioos:station:TCOON:170:1,2017-11-06T22:30:00Z,27.2970,-97.4049,1.0,7.78,1111122 
TCOON,ioos:station:TCOON:170:1,2017-11-06T23:30:00Z,27.2970,-97.4049,1.0,6.92,1111122 
TCOON,ioos:station:TCOON:170:1,2017-11-07T01:30:00Z,27.2970,-97.4049,1.0,5.26,1111122 
TCOON,ioos:station:TCOON:170:1,2017-11-07T02:30:00Z,27.2970,-97.4049,1.0,4.93,1111122 
TCOON,ioos:station:TCOON:170:1,2017-11-07T03:30:00Z,27.2970,-97.4049,1.0,4.53,1111122 
TCOON,ioos:station:TCOON:170:1,2017-11-07T07:30:00Z,27.2970,-97.4049,1.0,3.77,1111122 
TCOON,ioos:station:TCOON:170:1,2017-11-07T08:30:00Z,27.2970,-97.4049,1.0,4.04,1111122 
TCOON,ioos:station:TCOON:170:1,2017-11-07T09:30:00Z,27.2970,-97.4049,1.0,3.97,1111122 
TCOON,ioos:station:TCOON:170:1,2017-11-07T10:30:00Z,27.2970,-97.4049,1.0,3.97,1111122 
TCOON,ioos:station:TCOON:170:1,2017-11-07T11:30:00Z,27.2970,-97.4049,1.0,4.0,1111122 
TCOON,ioos:station:TCOON:170:1,2017-11-07T12:30:00Z,27.2970,-97.4049,1.0,3.87,1111122 
TCOON,ioos:station:TCOON:170:1,2017-11-07T13:30:00Z,27.2970,-97.4049,1.0,3.95,1111122 
TCOON,ioos:station:TCOON:170:1,2017-11-07T19:00:00Z,27.2970,-97.4049,1.0,6.29,1111122 
TCOON,ioos:station:TCOON:170:1,2017-11-07T19:30:00Z,27.2970,-97.4049,1.0,6.53,1111122 
TCOON,ioos:station:TCOON:170:1,2017-11-07T20:30:00Z,27.2970,-97.4049,1.0,6.87,1111122 
TCOON,ioos:station:TCOON:170:1,2017-11-07T21:30:00Z,27.2970,-97.4049,1.0,6.95,1111122 
TCOON,ioos:station:TCOON:170:1,2017-11-07T22:30:00Z,27.2970,-97.4049,1.0,6.61,1111122 
TCOON,ioos:station:TCOON:170:1,2017-11-07T23:30:00Z,27.2970,-97.4049,1.0,6.26,1111122 
TCOON,ioos:station:TCOON:170:1,2017-11-08T00:30:00Z,27.2970,-97.4049,1.0,5.62,1111122 
TCOON,ioos:station:TCOON:170:1,2017-11-08T01:30:00Z,27.2970,-97.4049,1.0,5.44,1111122 
TCOON,ioos:station:TCOON:170:1,2017-11-08T02:30:00Z,27.2970,-97.4049,1.0,5.44,1111122 
TCOON,ioos:station:TCOON:170:1,2017-11-08T09:30:00Z,27.2970,-97.4049,1.0,4.18,1111122 
TCOON,ioos:station:TCOON:170:1,2017-11-08T10:30:00Z,27.2970,-97.4049,1.0,4.05,1111122 
TCOON,ioos:station:TCOON:170:1,2017-11-08T11:30:00Z,27.2970,-97.4049,1.0,3.84,1111122 
TCOON,ioos:station:TCOON:170:1,2017-11-08T12:30:00Z,27.2970,-97.4049,1.0,4.43,1111122 
TCOON,ioos:station:TCOON:170:1,2017-11-08T13:30:00Z,27.2970,-97.4049,1.0,4.53,1111122 
TCOON,ioos:station:TCOON:170:1,2017-11-08T14:30:00Z,27.2970,-97.4049,1.0,4.62,1111122 
TCOON,ioos:station:TCOON:170:1,2017-11-08T15:30:00Z,27.2970,-97.4049,1.0,5.47,1111122 
TCOON,ioos:station:TCOON:170:1,2017-11-08T16:30:00Z,27.2970,-97.4049,1.0,5.82,1111122 
TCOON,ioos:station:TCOON:170:1,2017-11-08T18:30:00Z,27.2970,-97.4049,1.0,5.9,1111122 
TCOON,ioos:station:TCOON:170:1,2017-11-08T19:30:00Z,27.2970,-97.4049,1.0,6.03,1111122 
TCOON,ioos:station:TCOON:170:1,2017-11-08T20:30:00Z,27.2970,-97.4049,1.0,5.86,1111122 
TCOON,ioos:station:TCOON:170:1,2017-11-08T22:30:00Z,27.2970,-97.4049,1.0,5.7,1111122 
TCOON,ioos:station:TCOON:170:1,2017-11-08T23:30:00Z,27.2970,-97.4049,1.0,5.49,1111122 
TCOON,ioos:station:TCOON:170:1,2017-11-09T00:30:00Z,27.2970,-97.4049,1.0,5.44,1111122 
TCOON,ioos:station:TCOON:170:1,2017-11-09T01:30:00Z,27.2970,-97.4049,1.0,5.22,1111122 
TCOON,ioos:station:TCOON:170:1,2017-11-09T02:30:00Z,27.2970,-97.4049,1.0,5.17,1111122 
TCOON,ioos:station:TCOON:170:1,2017-11-09T03:30:00Z,27.2970,-97.4049,1.0,5.26,1111122 
TCOON,ioos:station:TCOON:170:1,2017-11-09T04:30:00Z,27.2970,-97.4049,1.0,5.33,1111122 
TCOON,ioos:station:TCOON:170:1,2017-11-09T05:30:00Z,27.2970,-97.4049,1.0,5.32,1111122 
TCOON,ioos:station:TCOON:170:1,2017-11-09T06:30:00Z,27.2970,-97.4049,1.0,5.31,1111122 
TCOON,ioos:station:TCOON:170:1,2017-11-09T07:30:00Z,27.2970,-97.4049,1.0,5.32,1111122 
TCOON,ioos:station:TCOON:170:1,2017-11-09T08:30:00Z,27.2970,-97.4049,1.0,5.37,1111122 
TCOON,ioos:station:TCOON:170:1,2017-11-09T09:30:00Z,27.2970,-97.4049,1.0,5.43,1111122 
TCOON,ioos:station:TCOON:170:1,2017-11-09T10:30:00Z,27.2970,-97.4049,1.0,5.46,1111122 
TCOON,ioos:station:TCOON:170:1,2017-11-09T11:30:00Z,27.2970,-97.4049,1.0,5.49,1111122 
TCOON,ioos:station:TCOON:170:1,2017-11-09T12:30:00Z,27.2970,-97.4049,1.0,5.51,1111122 
TCOON,ioos:station:TCOON:170:1,2017-11-09T13:30:00Z,27.2970,-97.4049,1.0,5.56,1111122 
TCOON,ioos:station:TCOON:170:1,2017-11-09T14:30:00Z,27.2970,-97.4049,1.0,5.65,1111122 
TCOON,ioos:station:TCOON:170:1,2017-11-09T15:30:00Z,27.2970,-97.4049,1.0,5.88,1111122 
TCOON,ioos:station:TCOON:170:1,2017-11-09T16:30:00Z,27.2970,-97.4049,1.0,6.15,1111122 
TCOON,ioos:station:TCOON:170:1,2017-11-09T17:30:00Z,27.2970,-97.4049,1.0,6.53,1111122 
TCOON,ioos:station:TCOON:170:1,2017-11-09T19:30:00Z,27.2970,-97.4049,1.0,6.99,1111122 
TCOON,ioos:station:TCOON:170:1,2017-11-09T21:30:00Z,27.2970,-97.4049,1.0,7.05,1111122 
TCOON,ioos:station:TCOON:170:1,2017-11-09T22:30:00Z,27.2970,-97.4049,1.0,7.0,1111122 
TCOON,ioos:station:TCOON:170:1,2017-11-10T01:30:00Z,27.2970,-97.4049,1.0,6.34,1111122 
TCOON,ioos:station:TCOON:170:1,2017-11-10T02:30:00Z,27.2970,-97.4049,1.0,6.27,1111122 
TCOON,ioos:station:TCOON:170:1,2017-11-10T03:30:00Z,27.2970,-97.4049,1.0,6.2,1111122 
TCOON,ioos:station:TCOON:170:1,2017-11-10T04:30:00Z,27.2970,-97.4049,1.0,6.15,1111122 
TCOON,ioos:station:TCOON:170:1,2017-11-10T05:30:00Z,27.2970,-97.4049,1.0,6.13,1111122 
TCOON,ioos:station:TCOON:170:1,2017-11-10T06:30:00Z,27.2970,-97.4049,1.0,6.03,1111122 
TCOON,ioos:station:TCOON:170:1,2017-11-10T07:30:00Z,27.2970,-97.4049,1.0,6.05,1111122 
TCOON,ioos:station:TCOON:170:1,2017-11-10T08:30:00Z,27.2970,-97.4049,1.0,6.06,1111122 
TCOON,ioos:station:TCOON:170:1,2017-11-10T09:30:00Z,27.2970,-97.4049,1.0,5.99,1111122 
TCOON,ioos:station:TCOON:170:1,2017-11-10T10:30:00Z,27.2970,-97.4049,1.0,6.03,1111122 
TCOON,ioos:station:TCOON:170:1,2017-11-10T12:30:00Z,27.2970,-97.4049,1.0,6.06,1111122 
TCOON,ioos:station:TCOON:170:1,2017-11-10T13:30:00Z,27.2970,-97.4049,1.0,6.12,1111122 
TCOON,ioos:station:TCOON:170:1,2017-11-10T15:30:00Z,27.2970,-97.4049,1.0,6.39,1111122 
TCOON,ioos:station:TCOON:170:1,2017-11-10T16:30:00Z,27.2970,-97.4049,1.0,6.69,1111122 
TCOON,ioos:station:TCOON:170:1,2017-11-10T17:30:00Z,27.2970,-97.4049,1.0,6.95,1111122 
TCOON,ioos:station:TCOON:170:1,2017-11-10T18:30:00Z,27.2970,-97.4049,1.0,7.23,1111122 
TCOON,ioos:station:TCOON:170:1,2017-11-10T19:30:00Z,27.2970,-97.4049,1.0,7.57,1111122 
TCOON,ioos:station:TCOON:170:1,2017-11-10T20:30:00Z,27.2970,-97.4049,1.0,7.71,1111122 
TCOON,ioos:station:TCOON:170:1,2017-11-10T21:30:00Z,27.2970,-97.4049,1.0,7.82,1111122 
TCOON,ioos:station:TCOON:170:1,2017-11-11T00:30:00Z,27.2970,-97.4049,1.0,7.06,1111122 
TCOON,ioos:station:TCOON:170:1,2017-11-11T01:30:00Z,27.2970,-97.4049,1.0,6.9,1111122 
TCOON,ioos:station:TCOON:170:1,2017-11-11T02:30:00Z,27.2970,-97.4049,1.0,6.67,1111122 
TCOON,ioos:station:TCOON:170:1,2017-11-11T03:30:00Z,27.2970,-97.4049,1.0,6.48,1111122 
TCOON,ioos:station:TCOON:170:1,2017-11-11T04:30:00Z,27.2970,-97.4049,1.0,6.42,1111122 
TCOON,ioos:station:TCOON:170:1,2017-11-11T05:30:00Z,27.2970,-97.4049,1.0,6.12,1111122 
TCOON,ioos:station:TCOON:170:1,2017-11-11T06:30:00Z,27.2970,-97.4049,1.0,5.99,1111122 
TCOON,ioos:station:TCOON:170:1,2017-11-11T07:30:00Z,27.2970,-97.4049,1.0,5.83,1111122 
TCOON,ioos:station:TCOON:170:1,2017-11-11T08:30:00Z,27.2970,-97.4049,1.0,5.63,1111122 
TCOON,ioos:station:TCOON:170:1,2017-11-11T11:30:00Z,27.2970,-97.4049,1.0,5.73,1111122 
TCOON,ioos:station:TCOON:170:1,2017-11-11T12:30:00Z,27.2970,-97.4049,1.0,5.8,1111122 
TCOON,ioos:station:TCOON:170:1,2017-11-11T13:30:00Z,27.2970,-97.4049,1.0,5.91,1111122 
TCOON,ioos:station:TCOON:170:1,2017-11-11T14:30:00Z,27.2970,-97.4049,1.0,6.53,1111122 
TCOON,ioos:station:TCOON:170:1,2017-11-11T15:30:00Z,27.2970,-97.4049,1.0,7.02,1111122 
TCOON,ioos:station:TCOON:170:1,2017-11-11T16:30:00Z,27.2970,-97.4049,1.0,7.19,1111122 
TCOON,ioos:station:TCOON:170:1,2017-11-11T17:30:00Z,27.2970,-97.4049,1.0,7.04,1111122 
TCOON,ioos:station:TCOON:170:1,2017-11-11T19:30:00Z,27.2970,-97.4049,1.0,7.66,1111122 
TCOON,ioos:station:TCOON:170:1,2017-11-11T20:30:00Z,27.2970,-97.4049,1.0,7.89,1111122 
TCOON,ioos:station:TCOON:170:1,2017-11-11T21:30:00Z,27.2970,-97.4049,1.0,7.59,1111122 
TCOON,ioos:station:TCOON:170:1,2017-11-11T22:30:00Z,27.2970,-97.4049,1.0,7.09,1111122 
TCOON,ioos:station:TCOON:170:1,2017-11-11T23:30:00Z,27.2970,-97.4049,1.0,6.89,1111122 
TCOON,ioos:station:TCOON:170:1,2017-11-12T00:30:00Z,27.2970,-97.4049,1.0,6.85,1111122 
TCOON,ioos:station:TCOON:170:1,2017-11-12T01:30:00Z,27.2970,-97.4049,1.0,6.8,1111122 
TCOON,ioos:station:TCOON:170:1,2017-11-12T02:30:00Z,27.2970,-97.4049,1.0,6.66,1111122 
TCOON,ioos:station:TCOON:170:1,2017-11-12T03:30:00Z,27.2970,-97.4049,1.0,6.26,1111122 
TCOON,ioos:station:TCOON:170:1,2017-11-12T04:30:00Z,27.2970,-97.4049,1.0,5.99,1111122 
TCOON,ioos:station:TCOON:170:1,2017-11-12T16:30:00Z,27.2970,-97.4049,1.0,5.93,1111122 
TCOON,ioos:station:TCOON:170:1,2017-11-12T17:30:00Z,27.2970,-97.4049,1.0,5.53,1111122 
TCOON,ioos:station:TCOON:170:1,2017-11-12T19:30:00Z,27.2970,-97.4049,1.0,6.62,1111122 
TCOON,ioos:station:TCOON:170:1,2017-11-12T20:30:00Z,27.2970,-97.4049,1.0,6.91,1111122 
TCOON,ioos:station:TCOON:170:1,2017-11-12T21:30:00Z,27.2970,-97.4049,1.0,7.3,1111122 
TCOON,ioos:station:TCOON:170:1,2017-11-12T22:30:00Z,27.2970,-97.4049,1.0,6.69,1111122 
TCOON,ioos:station:TCOON:170:1,2017-11-12T23:30:00Z,27.2970,-97.4049,1.0,6.52,1111122 
TCOON,ioos:station:TCOON:170:1,2017-11-13T00:30:00Z,27.2970,-97.4049,1.0,6.34,1111122 
TCOON,ioos:station:TCOON:170:1,2017-11-13T01:30:00Z,27.2970,-97.4049,1.0,6.2,1111122 
TCOON,ioos:station:TCOON:170:1,2017-11-13T03:30:00Z,27.2970,-97.4049,1.0,5.65,1111122 
TCOON,ioos:station:TCOON:170:1,2017-11-13T04:30:00Z,27.2970,-97.4049,1.0,5.17,1111122 
TCOON,ioos:station:TCOON:170:1,2017-11-13T05:30:00Z,27.2970,-97.4049,1.0,4.55,1111122 
TCOON,ioos:station:TCOON:170:1,2017-11-13T07:30:00Z,27.2970,-97.4049,1.0,4.63,1111122 
TCOON,ioos:station:TCOON:170:1,2017-11-13T09:30:00Z,27.2970,-97.4049,1.0,4.34,1111122 
TCOON,ioos:station:TCOON:170:1,2017-11-13T10:30:00Z,27.2970,-97.4049,1.0,4.27,1111122 
TCOON,ioos:station:TCOON:170:1,2017-11-13T12:30:00Z,27.2970,-97.4049,1.0,4.5,1111122 
TCOON,ioos:station:TCOON:170:1,2017-11-13T13:30:00Z,27.2970,-97.4049,1.0,4.48,1111122 
TCOON,ioos:station:TCOON:170:1,2017-11-13T14:30:00Z,27.2970,-97.4049,1.0,4.87,1111122 
TCOON,ioos:station:TCOON:170:1,2017-11-13T15:30:00Z,27.2970,-97.4049,1.0,5.51,1111122 
TCOON,ioos:station:TCOON:170:1,2017-11-13T16:30:00Z,27.2970,-97.4049,1.0,5.3,1111122 
TCOON,ioos:station:TCOON:170:1,2017-11-13T17:30:00Z,27.2970,-97.4049,1.0,5.55,1111122 
TCOON,ioos:station:TCOON:170:1,2017-11-13T18:30:00Z,27.2970,-97.4049,1.0,6.14,1111122 
TCOON,ioos:station:TCOON:170:1,2017-11-13T19:30:00Z,27.2970,-97.4049,1.0,6.44,1111122 
TCOON,ioos:station:TCOON:170:1,2017-11-13T20:30:00Z,27.2970,-97.4049,1.0,6.79,1111122 
TCOON,ioos:station:TCOON:170:1,2017-11-13T21:30:00Z,27.2970,-97.4049,1.0,6.86,1111122 
TCOON,ioos:station:TCOON:170:1,2017-11-13T22:30:00Z,27.2970,-97.4049,1.0,6.78,1111122 
TCOON,ioos:station:TCOON:170:1,2017-11-14T00:00:00Z,27.2970,-97.4049,1.0,6.43,1111122 
TCOON,ioos:station:TCOON:170:1,2017-11-14T00:30:00Z,27.2970,-97.4049,1.0,6.2,1111122 
TCOON,ioos:station:TCOON:170:1,2017-11-14T01:30:00Z,27.2970,-97.4049,1.0,5.97,1111122 
TCOON,ioos:station:TCOON:170:1,2017-11-14T02:30:00Z,27.2970,-97.4049,1.0,6.03,1111122 
TCOON,ioos:station:TCOON:170:1,2017-11-14T03:30:00Z,27.2970,-97.4049,1.0,5.65,1111122 
TCOON,ioos:station:TCOON:170:1,2017-11-14T04:30:00Z,27.2970,-97.4049,1.0,5.28,1111122 
TCOON,ioos:station:TCOON:170:1,2017-11-14T09:30:00Z,27.2970,-97.4049,1.0,4.81,1111122 
TCOON,ioos:station:TCOON:170:1,2017-11-14T14:30:00Z,27.2970,-97.4049,1.0,4.32,1111122 
TCOON,ioos:station:TCOON:170:1,2017-11-14T15:30:00Z,27.2970,-97.4049,1.0,5.1,1111122 
TCOON,ioos:station:TCOON:170:1,2017-11-14T16:30:00Z,27.2970,-97.4049,1.0,5.95,1111122 
TCOON,ioos:station:TCOON:170:1,2017-11-14T18:30:00Z,27.2970,-97.4049,1.0,6.63,1111122 
TCOON,ioos:station:TCOON:170:1,2017-11-14T19:30:00Z,27.2970,-97.4049,1.0,6.68,1111122 
TCOON,ioos:station:TCOON:170:1,2017-11-14T20:30:00Z,27.2970,-97.4049,1.0,6.6,1111122 
TCOON,ioos:station:TCOON:170:1,2017-11-14T21:30:00Z,27.2970,-97.4049,1.0,6.99,1111122 
TCOON,ioos:station:TCOON:170:1,2017-11-14T22:30:00Z,27.2970,-97.4049,1.0,6.82,1111122 
TCOON,ioos:station:TCOON:170:1,2017-11-14T23:30:00Z,27.2970,-97.4049,1.0,6.76,1111122 
TCOON,ioos:station:TCOON:170:1,2017-11-15T06:30:00Z,27.2970,-97.4049,1.0,5.2,1111122 
TCOON,ioos:station:TCOON:170:1,2017-11-15T13:30:00Z,27.2970,-97.4049,1.0,4.48,1111122 
TCOON,ioos:station:TCOON:170:1,2017-11-15T17:30:00Z,27.2970,-97.4049,1.0,6.69,1111122 
TCOON,ioos:station:TCOON:170:1,2017-11-15T18:30:00Z,27.2970,-97.4049,1.0,6.16,1111122 
TCOON,ioos:station:TCOON:170:1,2017-11-15T19:30:00Z,27.2970,-97.4049,1.0,6.71,1111122 
TCOON,ioos:station:TCOON:170:1,2017-11-15T20:30:00Z,27.2970,-97.4049,1.0,7.1,1111122 
TCOON,ioos:station:TCOON:170:1,2017-11-15T21:30:00Z,27.2970,-97.4049,1.0,7.36,1111122 
TCOON,ioos:station:TCOON:170:1,2017-11-15T22:30:00Z,27.2970,-97.4049,1.0,6.99,1111122 
TCOON,ioos:station:TCOON:170:1,2017-11-15T23:30:00Z,27.2970,-97.4049,1.0,6.45,1111122 
TCOON,ioos:station:TCOON:170:1,2017-11-16T00:30:00Z,27.2970,-97.4049,1.0,5.76,1111122 
TCOON,ioos:station:TCOON:170:1,2017-11-16T01:30:00Z,27.2970,-97.4049,1.0,5.64,1111122 
TCOON,ioos:station:TCOON:170:1,2017-11-16T02:30:00Z,27.2970,-97.4049,1.0,5.26,1111122 
TCOON,ioos:station:TCOON:170:1,2017-11-16T03:30:00Z,27.2970,-97.4049,1.0,5.17,1111122 
TCOON,ioos:station:TCOON:170:1,2017-11-16T04:30:00Z,27.2970,-97.4049,1.0,4.84,1111122 
TCOON,ioos:station:TCOON:170:1,2017-11-16T05:30:00Z,27.2970,-97.4049,1.0,4.62,1111122 
TCOON,ioos:station:TCOON:170:1,2017-11-16T06:30:00Z,27.2970,-97.4049,1.0,4.57,1111122 
TCOON,ioos:station:TCOON:170:1,2017-11-16T07:30:00Z,27.2970,-97.4049,1.0,4.54,1111122 
TCOON,ioos:station:TCOON:170:1,2017-11-16T08:30:00Z,27.2970,-97.4049,1.0,4.49,1111122 
TCOON,ioos:station:TCOON:170:1,2017-11-16T10:30:00Z,27.2970,-97.4049,1.0,4.21,1111122 
TCOON,ioos:station:TCOON:170:1,2017-11-16T11:30:00Z,27.2970,-97.4049,1.0,3.87,1111122 
TCOON,ioos:station:TCOON:170:1,2017-11-16T12:30:00Z,27.2970,-97.4049,1.0,3.69,1111122 
TCOON,ioos:station:TCOON:170:1,2017-11-16T14:30:00Z,27.2970,-97.4049,1.0,3.85,1111122 
TCOON,ioos:station:TCOON:170:1,2017-11-16T15:30:00Z,27.2970,-97.4049,1.0,4.56,1111122 
TCOON,ioos:station:TCOON:170:1,2017-11-16T16:30:00Z,27.2970,-97.4049,1.0,5.02,1111122 
TCOON,ioos:station:TCOON:170:1,2017-11-16T17:30:00Z,27.2970,-97.4049,1.0,5.63,1111122 
TCOON,ioos:station:TCOON:170:1,2017-11-16T18:30:00Z,27.2970,-97.4049,1.0,5.81,1111122 
TCOON,ioos:station:TCOON:170:1,2017-11-16T19:30:00Z,27.2970,-97.4049,1.0,6.39,1111122 
TCOON,ioos:station:TCOON:170:1,2017-11-16T20:30:00Z,27.2970,-97.4049,1.0,7.04,1111122 
TCOON,ioos:station:TCOON:170:1,2017-11-16T21:30:00Z,27.2970,-97.4049,1.0,7.64,1111122 
TCOON,ioos:station:TCOON:170:1,2017-11-16T22:30:00Z,27.2970,-97.4049,1.0,7.34,1111122 
TCOON,ioos:station:TCOON:170:1,2017-11-17T04:30:00Z,27.2970,-97.4049,1.0,4.03,1111122 
TCOON,ioos:station:TCOON:170:1,2017-11-17T07:30:00Z,27.2970,-97.4049,1.0,3.81,1111122 
TCOON,ioos:station:TCOON:170:1,2017-11-17T08:30:00Z,27.2970,-97.4049,1.0,3.58,1111122 
TCOON,ioos:station:TCOON:170:1,2017-11-17T09:30:00Z,27.2970,-97.4049,1.0,3.62,1111122 